QTR85C OOMS-OTHH

Flight info

Callsign QTR85C
Flight time 1h 2m
Altitude 32000
Route MCT N718 ITRAX P899 TOVOX
Aircraft B789/H-SDE1E2E3FGHIJ2J3J4J5M1RWXY/LB1D1

Departure

Time 2026-05-03 23:41
Airport Muscat International Airport (OOMS)

Arrival

Time 2026-05-04 00:43
Airport Hamad International Airport (OTHH)
Time Latitude Longitude Altitude Speed Heading
2026-05-03 23:12 23.60148 58.28250 39 ft 0 kts 175°
2026-05-03 23:28 23.60148 58.28249 39 ft 0 kts 175°
2026-05-03 23:28 23.60163 58.28248 38 ft 3 kts 175°
2026-05-03 23:29 23.60181 58.28247 36 ft 3 kts 175°
2026-05-03 23:29 23.60196 58.28245 37 ft 2 kts 175°
2026-05-03 23:29 23.60210 58.28244 37 ft 2 kts 175°
2026-05-03 23:29 23.60225 58.28243 38 ft 2 kts 175°
2026-05-03 23:30 23.60239 58.28240 36 ft 2 kts 156°
2026-05-03 23:30 23.60250 58.28230 38 ft 2 kts 115°
2026-05-03 23:30 23.60252 58.28215 37 ft 2 kts 92°
2026-05-03 23:30 23.60253 58.28199 37 ft 2 kts 92°
2026-05-03 23:31 23.60253 58.28187 38 ft 0 kts 86°
2026-05-03 23:33 23.60253 58.28193 38 ft 1 kts 86°
2026-05-03 23:33 23.60254 58.28208 38 ft 3 kts 86°
2026-05-03 23:33 23.60256 58.28232 38 ft 4 kts 85°
2026-05-03 23:34 23.60258 58.28266 38 ft 5 kts 85°
2026-05-03 23:34 23.60262 58.28310 39 ft 6 kts 85°
2026-05-03 23:34 23.60266 58.28363 39 ft 8 kts 85°
2026-05-03 23:34 23.60273 58.28424 39 ft 8 kts 72°
2026-05-03 23:35 23.60314 58.28450 39 ft 7 kts
2026-05-03 23:35 23.60364 58.28448 39 ft 8 kts 356°
2026-05-03 23:35 23.60420 58.28444 39 ft 9 kts 356°
2026-05-03 23:35 23.60483 58.28438 39 ft 9 kts 355°
2026-05-03 23:36 23.60537 58.28457 39 ft 8 kts 56°
2026-05-03 23:36 23.60549 58.28516 40 ft 8 kts 85°
2026-05-03 23:36 23.60554 58.28581 40 ft 9 kts 85°
2026-05-03 23:36 23.60560 58.28656 40 ft 10 kts 85°
2026-05-03 23:37 23.60566 58.28737 40 ft 11 kts 85°
2026-05-03 23:37 23.60573 58.28827 40 ft 12 kts 85°
2026-05-03 23:37 23.60581 58.28924 40 ft 13 kts 84°
2026-05-03 23:37 23.60590 58.29027 39 ft 14 kts 84°
2026-05-03 23:38 23.60598 58.29135 40 ft 15 kts 85°
2026-05-03 23:38 23.60607 58.29250 39 ft 16 kts 85°
2026-05-03 23:38 23.60616 58.29372 39 ft 16 kts 83°
2026-05-03 23:38 23.60627 58.29495 39 ft 17 kts 85°
2026-05-03 23:39 23.60638 58.29623 39 ft 17 kts 85°
2026-05-03 23:39 23.60698 58.29709 39 ft 15 kts
2026-05-03 23:39 23.60803 58.29703 39 ft 15 kts 355°
2026-05-03 23:39 23.60891 58.29656 39 ft 14 kts 295°
2026-05-03 23:40 23.60895 58.29557 39 ft 13 kts 266°
2026-05-03 23:40 23.60881 58.29380 40 ft 50 kts 264°
2026-05-03 23:40 23.60827 58.28718 41 ft 125 kts 264°
2026-05-03 23:40 23.60732 58.27535 110 ft 183 kts 268°
2026-05-03 23:41 23.60650 58.26126 948 ft 192 kts 270°
2026-05-03 23:41 23.60567 58.24641 1975 ft 196 kts 269°
2026-05-03 23:41 23.60458 58.23146 2970 ft 206 kts 269°
2026-05-03 23:41 23.60282 58.21414 3012 ft 249 kts 266°
2026-05-03 23:42 23.60078 58.19544 3013 ft 250 kts 267°
2026-05-03 23:42 23.59920 58.17611 3007 ft 258 kts 268°
2026-05-03 23:42 23.59772 58.15670 3015 ft 256 kts 268°
2026-05-03 23:42 23.59619 58.13752 3013 ft 257 kts 268°
2026-05-03 23:43 23.59459 58.11804 3022 ft 259 kts 268°
2026-05-03 23:43 23.59298 58.09848 3026 ft 258 kts 268°
2026-05-03 23:43 23.59140 58.07908 3025 ft 256 kts 268°
2026-05-03 23:43 23.58982 58.05974 3029 ft 256 kts 268°
2026-05-03 23:44 23.58831 58.04027 3026 ft 256 kts 271°
2026-05-03 23:44 23.58863 58.02068 3742 ft 256 kts 274°
2026-05-03 23:44 23.58889 58.00059 4531 ft 266 kts 274°
2026-05-03 23:44 23.58896 57.98051 5247 ft 267 kts 274°
2026-05-03 23:45 23.58909 57.96003 5970 ft 272 kts 274°
2026-05-03 23:45 23.58925 57.93931 6673 ft 275 kts 274°
2026-05-03 23:45 23.58940 57.91866 7356 ft 278 kts 274°
2026-05-03 23:45 23.58955 57.89727 8085 ft 282 kts 274°
2026-05-03 23:46 23.58969 57.87569 8818 ft 286 kts 273°
2026-05-03 23:46 23.58984 57.85384 9564 ft 290 kts 273°
2026-05-03 23:46 23.58998 57.83171 10263 ft 293 kts 273°
2026-05-03 23:46 23.59008 57.80937 10962 ft 297 kts 272°
2026-05-03 23:47 23.59005 57.78668 11678 ft 300 kts 272°
2026-05-03 23:47 23.59002 57.76377 12416 ft 304 kts 272°
2026-05-03 23:47 23.59003 57.74058 13162 ft 307 kts 272°
2026-05-03 23:47 23.59005 57.71711 13891 ft 311 kts 272°
2026-05-03 23:48 23.59004 57.69341 14575 ft 313 kts 272°
2026-05-03 23:48 23.59003 57.66962 15279 ft 315 kts 273°
2026-05-03 23:48 23.59003 57.64593 15976 ft 317 kts 273°
2026-05-03 23:48 23.59002 57.62172 16711 ft 320 kts 273°
2026-05-03 23:49 23.59000 57.59731 17454 ft 323 kts 273°
2026-05-03 23:49 23.58998 57.57262 18205 ft 327 kts 274°
2026-05-03 23:49 23.58996 57.54781 18875 ft 329 kts 274°
2026-05-03 23:49 23.58992 57.52275 19563 ft 331 kts 273°
2026-05-03 23:50 23.58989 57.49751 20269 ft 334 kts 273°
2026-05-03 23:50 23.58987 57.48069 20743 ft 336 kts 273°
2026-05-03 23:50 23.58981 57.44643 21725 ft 340 kts 273°
2026-05-03 23:50 23.58976 57.42061 22471 ft 341 kts 273°
2026-05-03 23:51 23.58971 57.39470 23252 ft 342 kts 273°
2026-05-03 23:51 23.58965 57.36868 23928 ft 343 kts 273°
2026-05-03 23:51 23.58959 57.34274 24589 ft 342 kts 273°
2026-05-03 23:51 23.58953 57.31678 25268 ft 341 kts 273°
2026-05-03 23:52 23.58946 57.29095 25958 ft 339 kts 273°
2026-05-03 23:52 23.58938 57.26533 26660 ft 337 kts 273°
2026-05-03 23:52 23.58930 57.23984 27391 ft 335 kts 273°
2026-05-03 23:52 23.58923 57.21440 27929 ft 339 kts 273°
2026-05-03 23:53 23.58917 57.18837 28305 ft 347 kts 273°
2026-05-03 23:53 23.58908 57.16179 28691 ft 353 kts 273°
2026-05-03 23:53 23.58932 57.13486 29109 ft 357 kts 279°
2026-05-03 23:53 23.59396 57.10824 29557 ft 360 kts 289°
2026-05-03 23:54 23.60328 57.08278 29980 ft 363 kts 295°
2026-05-03 23:54 23.61356 57.05735 30329 ft 369 kts 294°
2026-05-03 23:54 23.62375 57.03187 30673 ft 374 kts 294°
2026-05-03 23:54 23.63435 57.00579 31033 ft 378 kts 294°
2026-05-03 23:55 23.64513 56.97938 31393 ft 382 kts 294°
2026-05-03 23:55 23.65592 56.95276 31760 ft 386 kts 294°
2026-05-03 23:55 23.66689 56.92562 31836 ft 398 kts 293°
2026-05-03 23:55 23.67829 56.89744 31845 ft 410 kts 294°
2026-05-03 23:56 23.68997 56.86861 31847 ft 422 kts 294°
2026-05-03 23:56 23.70200 56.83889 31856 ft 433 kts 293°
2026-05-03 23:56 23.71430 56.80844 31850 ft 444 kts 293°
2026-05-03 23:56 23.72689 56.77726 31857 ft 453 kts 293°
2026-05-03 23:57 23.75276 56.71314 31851 ft 468 kts 293°
2026-05-03 23:57 23.77467 56.65876 31857 ft 473 kts 293°
2026-05-03 23:58 23.80131 56.59256 31861 ft 472 kts 293°
2026-05-03 23:58 23.82768 56.52691 31864 ft 472 kts 293°
2026-05-03 23:59 23.85393 56.46149 31871 ft 473 kts 293°
2026-05-03 23:59 23.88030 56.39565 31864 ft 473 kts 293°
2026-05-04 00:00 23.90660 56.32990 31870 ft 473 kts 293°
2026-05-04 00:00 23.93289 56.26409 31865 ft 472 kts 293°
2026-05-04 00:01 23.96484 56.20158 31865 ft 474 kts 302°
2026-05-04 00:01 24.00166 56.14171 31866 ft 474 kts 302°
2026-05-04 00:02 24.03856 56.08185 31855 ft 474 kts 302°
2026-05-04 00:02 24.07536 56.02196 31855 ft 473 kts 302°
2026-05-04 00:03 24.11202 55.96230 31851 ft 472 kts 302°
2026-05-04 00:03 24.14871 55.90248 31845 ft 473 kts 302°
2026-05-04 00:04 24.18539 55.84261 31842 ft 473 kts 302°
2026-05-04 00:04 24.21653 55.77957 31845 ft 471 kts 289°
2026-05-04 00:05 24.23445 55.71045 31841 ft 471 kts 285°
2026-05-04 00:05 24.25122 55.64153 31840 ft 472 kts 284°
2026-05-04 00:06 24.26648 55.57154 31837 ft 472 kts 282°
2026-05-04 00:06 24.28014 55.50115 31836 ft 472 kts 282°
2026-05-04 00:07 24.29371 55.43073 31833 ft 472 kts 282°
2026-05-04 00:07 24.30701 55.36014 31834 ft 472 kts 278°
2026-05-04 00:08 24.31439 55.28858 31823 ft 473 kts 277°
2026-05-04 00:08 24.32180 55.21678 31812 ft 473 kts 276°
2026-05-04 00:09 24.32900 55.14502 31806 ft 473 kts 277°
2026-05-04 00:09 24.33617 55.07440 31804 ft 473 kts 276°
2026-05-04 00:10 24.34332 55.00266 31802 ft 473 kts 276°
2026-05-04 00:10 24.35048 54.93095 31792 ft 473 kts 276°
2026-05-04 00:11 24.35759 54.85909 31789 ft 473 kts 276°
2026-05-04 00:11 24.36468 54.78723 31782 ft 474 kts 276°
2026-05-04 00:12 24.37175 54.71526 31782 ft 474 kts 276°
2026-05-04 00:12 24.37878 54.64326 31783 ft 474 kts 276°
2026-05-04 00:13 24.38575 54.57153 31780 ft 473 kts 276°
2026-05-04 00:13 24.39369 54.50028 31793 ft 472 kts 282°
2026-05-04 00:14 24.40926 54.43007 31547 ft 475 kts 283°
2026-05-04 00:14 24.41708 54.39498 31194 ft 470 kts 283°
2026-05-04 00:14 24.42486 54.36025 30848 ft 468 kts 283°
2026-05-04 00:15 24.43260 54.32557 30506 ft 465 kts 283°
2026-05-04 00:15 24.44015 54.29155 30157 ft 462 kts 283°
2026-05-04 00:15 24.44776 54.25730 29816 ft 460 kts 283°
2026-05-04 00:15 24.45534 54.22320 29408 ft 458 kts 283°
2026-05-04 00:16 24.46286 54.18930 29008 ft 456 kts 283°
2026-05-04 00:16 24.47034 54.15552 28614 ft 454 kts 283°
2026-05-04 00:16 24.47778 54.12187 28228 ft 453 kts 284°
2026-05-04 00:16 24.48520 54.08831 27849 ft 451 kts 284°
2026-05-04 00:17 24.49243 54.05557 27483 ft 450 kts 284°
2026-05-04 00:17 24.49978 54.02225 27110 ft 448 kts 284°
2026-05-04 00:17 24.50709 53.98907 26746 ft 447 kts 284°
2026-05-04 00:17 24.51438 53.95593 26375 ft 446 kts 284°
2026-05-04 00:18 24.52165 53.92285 26028 ft 444 kts 284°
2026-05-04 00:18 24.52985 53.89015 25680 ft 443 kts 286°
2026-05-04 00:18 24.53802 53.85756 25339 ft 442 kts 285°
2026-05-04 00:18 24.54593 53.82541 24995 ft 441 kts 285°
2026-05-04 00:19 24.55410 53.79287 24658 ft 440 kts 286°
2026-05-04 00:19 24.56235 53.76043 24325 ft 440 kts 286°
2026-05-04 00:19 24.57048 53.72806 23995 ft 439 kts 285°
2026-05-04 00:19 24.57854 53.69572 23658 ft 438 kts 285°
2026-05-04 00:20 24.58661 53.66347 23326 ft 437 kts 286°
2026-05-04 00:20 24.59467 53.63130 22935 ft 435 kts 286°
2026-05-04 00:20 24.60267 53.59933 22550 ft 433 kts 286°
2026-05-04 00:20 24.61059 53.56757 22158 ft 430 kts 286°
2026-05-04 00:21 24.61846 53.53599 21785 ft 427 kts 286°
2026-05-04 00:21 24.62619 53.50502 21422 ft 424 kts 286°
2026-05-04 00:21 24.63394 53.47389 21063 ft 421 kts 286°
2026-05-04 00:21 24.64163 53.44296 20819 ft 417 kts 286°
2026-05-04 00:22 24.64930 53.41211 20579 ft 417 kts 286°
2026-05-04 00:22 24.65694 53.38134 20339 ft 416 kts 286°
2026-05-04 00:22 24.66454 53.35069 20101 ft 415 kts 286°
2026-05-04 00:22 24.67210 53.32019 19867 ft 413 kts 286°
2026-05-04 00:23 24.67964 53.28974 19627 ft 412 kts 287°
2026-05-04 00:23 24.68715 53.25936 19391 ft 411 kts 287°
2026-05-04 00:23 24.69461 53.22915 19173 ft 409 kts 287°
2026-05-04 00:23 24.70207 53.19893 18947 ft 408 kts 287°
2026-05-04 00:24 24.70952 53.16877 18623 ft 408 kts 287°
2026-05-04 00:24 24.71693 53.13870 18286 ft 406 kts 287°
2026-05-04 00:24 24.72428 53.10883 17935 ft 403 kts 287°
2026-05-04 00:24 24.73157 53.07919 17549 ft 401 kts 287°
2026-05-04 00:25 24.73882 53.04969 17162 ft 399 kts 287°
2026-05-04 00:25 24.74594 53.02068 16795 ft 397 kts 287°
2026-05-04 00:25 24.75318 52.99116 16431 ft 396 kts 287°
2026-05-04 00:25 24.76039 52.96176 16067 ft 393 kts 287°
2026-05-04 00:26 24.76749 52.93274 15703 ft 392 kts 287°
2026-05-04 00:26 24.77455 52.90388 15345 ft 390 kts 287°
2026-05-04 00:26 24.78158 52.87514 14999 ft 389 kts 287°
2026-05-04 00:26 24.78859 52.84642 14645 ft 387 kts 287°
2026-05-04 00:27 24.79555 52.81789 14305 ft 386 kts 287°
2026-05-04 00:27 24.80249 52.78943 13970 ft 384 kts 287°
2026-05-04 00:27 24.80941 52.76103 13639 ft 382 kts 287°
2026-05-04 00:27 24.81631 52.73266 13249 ft 380 kts 287°
2026-05-04 00:28 24.82311 52.70472 12875 ft 377 kts 286°
2026-05-04 00:28 24.82976 52.67732 12502 ft 373 kts 286°
2026-05-04 00:28 24.83652 52.64947 12123 ft 370 kts 286°
2026-05-04 00:28 24.84312 52.62225 11766 ft 367 kts 286°
2026-05-04 00:29 24.84956 52.59568 11409 ft 364 kts 286°
2026-05-04 00:29 24.85620 52.56825 11058 ft 361 kts 285°
2026-05-04 00:29 24.86263 52.54166 10703 ft 359 kts 285°
2026-05-04 00:29 24.86904 52.51515 10357 ft 356 kts 285°
2026-05-04 00:30 24.87544 52.48899 10110 ft 352 kts 286°
2026-05-04 00:30 24.88256 52.46335 9893 ft 350 kts 288°
2026-05-04 00:30 24.88985 52.43777 9662 ft 349 kts 287°
2026-05-04 00:30 24.89677 52.41212 9400 ft 348 kts 287°
2026-05-04 00:31 24.90358 52.38645 9145 ft 347 kts 287°
2026-05-04 00:31 24.91045 52.36099 8917 ft 347 kts 287°
2026-05-04 00:31 24.91738 52.33560 8666 ft 346 kts 287°
2026-05-04 00:31 24.92423 52.31027 8424 ft 345 kts 287°
2026-05-04 00:32 24.93105 52.28493 8182 ft 344 kts 287°
2026-05-04 00:32 24.93774 52.26008 7945 ft 343 kts 287°
2026-05-04 00:32 24.94452 52.23495 7707 ft 342 kts 287°
2026-05-04 00:32 24.95129 52.20986 7470 ft 340 kts 287°
2026-05-04 00:33 24.95793 52.18514 7235 ft 335 kts 287°
2026-05-04 00:33 24.97108 52.13625 6765 ft 330 kts 287°
2026-05-04 00:33 24.97549 52.11984 6613 ft 330 kts 287°
2026-05-04 00:34 24.98406 52.08790 6302 ft 327 kts 287°
2026-05-04 00:34 24.98833 52.07198 6142 ft 325 kts 287°
2026-05-04 00:34 24.99461 52.04848 5894 ft 307 kts 287°
2026-05-04 00:34 25.00053 52.02638 5637 ft 294 kts 287°
2026-05-04 00:35 25.00620 52.00521 5388 ft 291 kts 287°
2026-05-04 00:35 25.01193 51.98382 5136 ft 290 kts 287°
2026-05-04 00:35 25.01764 51.96245 4900 ft 290 kts 288°
2026-05-04 00:35 25.02334 51.94110 4655 ft 290 kts 288°
2026-05-04 00:36 25.02904 51.91980 4406 ft 290 kts 288°
2026-05-04 00:36 25.03472 51.89852 4174 ft 289 kts 288°
2026-05-04 00:36 25.04039 51.87724 3932 ft 288 kts 288°
2026-05-04 00:36 25.04604 51.85602 3693 ft 288 kts 288°
2026-05-04 00:37 25.05172 51.83474 3444 ft 289 kts 288°
2026-05-04 00:37 25.05732 51.81368 3212 ft 280 kts 288°
2026-05-04 00:37 25.06265 51.79360 3015 ft 265 kts 288°
2026-05-04 00:37 25.06762 51.77484 3002 ft 244 kts 289°
2026-05-04 00:38 25.07222 51.75754 2997 ft 226 kts 288°
2026-05-04 00:38 25.07653 51.74137 3001 ft 217 kts 288°
2026-05-04 00:38 25.08082 51.72553 3001 ft 214 kts 292°
2026-05-04 00:38 25.08843 51.71164 3003 ft 212 kts 311°
2026-05-04 00:39 25.09871 51.70007 2998 ft 207 kts 320°
2026-05-04 00:39 25.11019 51.69138 2934 ft 197 kts 332°
2026-05-04 00:39 25.12280 51.68542 2692 ft 198 kts 338°
2026-05-04 00:39 25.13549 51.68013 2463 ft 193 kts 338°
2026-05-04 00:40 25.14749 51.67493 2220 ft 181 kts 338°
2026-05-04 00:40 25.15897 51.66983 1985 ft 172 kts 337°
2026-05-04 00:40 25.16974 51.66503 1765 ft 162 kts 338°
2026-05-04 00:40 25.18007 51.66046 1568 ft 157 kts 338°
2026-05-04 00:41 25.19018 51.65598 1363 ft 156 kts 338°
2026-05-04 00:41 25.20027 51.65150 1159 ft 157 kts 338°
2026-05-04 00:41 25.21035 51.64705 961 ft 153 kts 336°
2026-05-04 00:41 25.21996 51.64277 774 ft 146 kts 336°
2026-05-04 00:42 25.22934 51.63859 582 ft 144 kts 337°
2026-05-04 00:42 25.23847 51.63453 383 ft 142 kts 337°
2026-05-04 00:42 25.24778 51.63041 218 ft 146 kts 337°
2026-05-04 00:42 25.25704 51.62622 43 ft 142 kts 337°
2026-05-04 00:43 25.26512 51.62270 28 ft 103 kts 339°
2026-05-04 00:43 25.27064 51.62024 28 ft 68 kts 338°
2026-05-04 00:43 25.27363 51.61875 28 ft 33 kts 325°
2026-05-04 00:43 25.27492 51.61701 28 ft 25 kts 306°
2026-05-04 00:44 25.27547 51.61565 27 ft 17 kts 256°
2026-05-04 00:44 25.27462 51.61539 27 ft 13 kts 161°
2026-05-04 00:44 25.27375 51.61576 28 ft 14 kts 158°
2026-05-04 00:44 25.27280 51.61618 28 ft 15 kts 158°
2026-05-04 00:45 25.27180 51.61663 27 ft 16 kts 158°
2026-05-04 00:45 25.27072 51.61710 28 ft 17 kts 158°
2026-05-04 00:45 25.26959 51.61760 28 ft 18 kts 158°
2026-05-04 00:45 25.26839 51.61813 27 ft 19 kts 158°
2026-05-04 00:46 25.26705 51.61872 27 ft 22 kts 158°
2026-05-04 00:46 25.26561 51.61936 27 ft 22 kts 158°
2026-05-04 00:46 25.26422 51.61997 28 ft 20 kts 158°
2026-05-04 00:46 25.26302 51.62051 28 ft 18 kts 158°
2026-05-04 00:47 25.26217 51.62046 28 ft 11 kts 227°
2026-05-04 00:47 25.26190 51.61976 28 ft 10 kts 248°
2026-05-04 00:47 25.26166 51.61912 28 ft 9 kts 248°
2026-05-04 00:47 25.26165 51.61848 28 ft 7 kts 303°
2026-05-04 00:48 25.26201 51.61817 28 ft 6 kts 330°
2026-05-04 00:48 25.26218 51.61806 28 ft 1 kts 328°
2026-05-04 00:48 25.26222 51.61803 28 ft 0 kts 328°